Home > Weather > Schwechat > Past weeks

Flag for Austria Past Weather in Schwechat, Lower Austria, Austria — Yesterday and Last 2 Weeks

Now
70 °F

Clear.


Feels Like: 70 °F
Forecast: 67 / 78 °F
Wind: 5 mph from Northwest

Location: Vienna Schwechat-Flughafen Airport

Current Time: Jul 27, 2016 at 4:00:02 AM

Latest Report: Jul 27, 2016 at 3:20 AM


Visibility: 10 mi

Pressure: 30.01 "Hg

Humidity: 78%

Dew Point: 63 °F

Location of SchwechatLocation

Past Weather in Schwechat — Graph

°F

Schwechat Temperature Yesterday

Maximum temperature yesterday: 84 °F (at 1:50 PM)
Minimum temperature yesterday: 70 °F (at 12:50 AM)
Average temperature yesterday: 77 °F

High & Low Weather Summary for the Past Weeks

 TemperatureHumidityPressure
High84 °F (Jul 21, 2:20 PM)100% (Jul 12, 10:20 PM)30.21 "Hg (Jul 12, 10:20 PM)
Low55 °F (Jul 14, 5:50 AM)42% (Jul 19, 2:20 PM)29.77 "Hg (Jul 14, 6:20 AM)
Average70 °F72%30.03 "Hg
* Reported Jul 12 2:20 AM — Jul 27 2:50 AM, Schwechat, Weather by CustomWeather, © 2016

Note: Actual official high and low records may vary slightly from our data, if they occured in-between our weather recording intervals... More about our weather records

Advertising

Schwechat Weather History for the Previous 24 Hours

Scroll right to see more
 ConditionsComfort  
Time TempWeatherWind HumidityBarometerVisibility
2:50 AM
Wed, Jul 27
72 °FClear.9 mph73%30.01 "Hg10 mi
2:20 AM72 °FClear.9 mph73%30.04 "Hg10 mi
1:50 AM72 °FPassing clouds.9 mph73%30.04 "HgN/A
1:20 AM72 °FPassing clouds.10 mph73%30.04 "HgN/A
12:50 AM70 °FPassing clouds.7 mph78%30.04 "HgN/A
12:20 AM73 °FPassing clouds.8 mph69%30.04 "HgN/A
11:50 PM
Tue, Jul 26
73 °FPassing clouds.6 mph74%30.04 "HgN/A
11:20 PM73 °FClear.8 mph74%30.04 "Hg10 mi
10:50 PM75 °FClear.8 mph69%30.01 "Hg10 mi
10:20 PM75 °FClear.9 mph69%30.04 "Hg10 mi
9:50 PM75 °FClear.10 mph69%30.01 "Hg10 mi
8:50 PM77 °FSunny.13 mph65%30.01 "Hg10 mi
8:20 PM77 °FSunny.10 mph65%30.01 "Hg10 mi
7:50 PM77 °FSunny.12 mph69%30.01 "Hg10 mi
7:20 PM79 °FScattered clouds.10 mph65%30.01 "HgN/A
6:50 PM81 °FPassing clouds.12 mph58%30.01 "HgN/A
6:20 PM82 °FScattered clouds.12 mph51%29.98 "HgN/A
5:50 PM82 °FScattered clouds.12 mph55%29.98 "HgN/A
5:20 PM82 °FScattered clouds.12 mph51%29.98 "HgN/A
4:50 PM81 °FScattered clouds.12 mph54%29.98 "HgN/A
4:20 PM82 °FPassing clouds.16 mph48%29.98 "HgN/A
3:50 PM84 °FPassing clouds.13 mph51%29.98 "HgN/A
3:20 PM84 °FPassing clouds.15 mph51%29.98 "HgN/A
2:50 PM84 °FPassing clouds.13 mph55%30.01 "HgN/A
2:20 PM84 °FPassing clouds.10 mph55%30.01 "HgN/A
1:50 PM84 °FPassing clouds.10 mph55%30.01 "HgN/A
1:20 PM82 °FPassing clouds.9 mph58%30.01 "HgN/A
12:50 PM82 °FPassing clouds.9 mph58%30.04 "HgN/A
12:20 PM81 °FPassing clouds.9 mph58%30.04 "HgN/A
11:50 AM81 °FPassing clouds.8 mph62%30.04 "HgN/A
11:20 AM81 °FPassing clouds.9 mph62%30.04 "HgN/A
10:50 AM79 °FPassing clouds.10 mph65%30.04 "HgN/A
10:20 AM79 °FPassing clouds.10 mph65%30.04 "HgN/A
9:50 AM77 °FPassing clouds.12 mph69%30.04 "HgN/A
9:20 AM77 °FPassing clouds.13 mph65%30.04 "HgN/A
8:50 AM75 °FSunny.10 mph69%30.04 "Hg10 mi
8:20 AM75 °FSunny.9 mph74%30.04 "Hg10 mi
7:50 AM72 °FSunny.2 mph83%30.04 "Hg10 mi
7:20 AM70 °FScattered clouds.3 mph83%30.04 "HgN/A
6:50 AM70 °FScattered clouds.8 mph78%30.04 "HgN/A
6:20 AM72 °FPassing clouds.12 mph73%30.04 "HgN/A
5:50 AM72 °FPassing clouds.9 mph73%30.04 "HgN/A
5:20 AM72 °FPartly cloudy.8 mph73%30.04 "HgN/A
4:50 AM72 °FPassing clouds.7 mph73%30.04 "HgN/A
4:20 AM72 °FPartly cloudy.10 mph73%30.04 "HgN/A
Weather by CustomWeather, © 2016

See weather overviewHow to use our weather pages